Preview of NWS' New Version of Forecast
This preview is not operational and should not be used for support decisions.

Regional Weather Roundup (RWR)

Issued by National Weather Service (NWS)

                            
000
ASUS45 KABQ 181310
RWRNM 
NEW MEXICO REGIONAL WEATHER ROUNDUP
NATIONAL WEATHER SERVICE ALBUQUERQUE NM
700 AM MDT THU APR 18 2019

NOTE: "FAIR" MEANS FEW OR NO CLOUDS BELOW 12,000 FEET AGL WITH NO
       SIGNIFICANT WEATHER OR OBSTRUCTIONS TO VISION.

      THIS PRODUCT IS RELEASED AS TWO VERSIONS.  ONE VERSION NEAR
      THE TOP OF THE HOUR CONTAINING PRELIMINARY DATA FROM ALBUQUERQUE
      AND OTHER STATIONS.  A FINAL VERSION WITH ADDITIONAL DATA IS 
      ISSUED ABOUT 10 MINUTES AFTER THE HOUR.
 
NMZ501-503-504-510>518-181400-
NORTHWEST PLATEAU/NORTHCENTRAL MOUNTAINS
  
CITY           SKY/WX    TMP DP  RH WIND       PRES   REMARKS
FARMINGTON     FAIR      41  25  53 W7        30.15R                  
LOS ALAMOS       N/A     42  32  69 N9        30.18R                  
SANTA FE       FAIR      35  35 100 N6        30.15R WCI  30          
TAOS           FAIR      27  27 100 MISG      30.21R                  
ANGEL FIRE       N/A     27  27  98 CALM      30.21R                  

$$
NMZ402-403-502-505>509-181400-
WESTCENTRAL MOUNTAINS/SOUTHWEST MOUNTAINS
  
CITY           SKY/WX    TMP DP  RH WIND       PRES   REMARKS
GALLUP         FAIR      29  25  85 E5        30.22R WCI  24          
GRANTS         FAIR      38  26  61 W5        30.22R WCI  35          
SILVER CITY    FAIR      41  38  89 NW13      30.17R                  

$$
NMZ407-409-411-412-181400-
SOUTHERN DESERTS
  
CITY           SKY/WX    TMP DP  RH WIND       PRES   REMARKS
DEMING         FAIR      43  40  89 S6        30.14R                  
LAS CRUCES     FAIR      42  42 100 NW8       30.13R                  
HOLLOMAN AFB   FAIR      42  39  89 E6        30.15R                  
ALAMOGORDO     FAIR      39  39 100 SE7       30.13R WCI  34          
T OR C         FAIR      43  40  89 CALM      30.13R                  

$$
NMZ519>523-181400-
CENTRAL VALLEYS/CENTRAL HIGHLANDS
  
CITY           SKY/WX    TMP DP  RH WIND       PRES   REMARKS
ALBUQUERQUE    FAIR      43  40  89 N3        30.16R                  
DOUBLE EAGLE   PTCLDY    36  34  93 NE7       30.18R WCI  30          
MORIARTY ARPT  SNOW      37  37 100 N5        30.19R VSB<1/4 WCI  34  
CLINES CORNERS FAIR      37  35  92 N5        30.19R WCI  33          
BELEN          FAIR      38  38 100 CALM      30.16R FOG              
SOCORRO        FAIR      37  36  98 S3        30.15R                  

$$
NMZ524>526-539-540-181400-
SOUTHCENTRAL MOUNTAINS
  
CITY           SKY/WX    TMP DP  RH WIND       PRES   REMARKS
RUIDOSO        FAIR      41  34  75 W6        30.19R                  

$$
NMZ527>531-181400-
NORTHEAST HIGHLANDS/NORTHEAST PLAINS
  
CITY           SKY/WX    TMP DP  RH WIND       PRES   REMARKS
LAS VEGAS      CLOUDY    35  33  92 NE12      30.18R WCI  27          
RATON          MOCLDY    36  32  85 CALM      30.18R                  
CLAYTON        CLOUDY    45  34  65 N16       30.12R                  

$$
NMZ532>537-181400-
EASTCENTRAL PLAINS
  
CITY           SKY/WX    TMP DP  RH WIND       PRES   REMARKS
SANTA ROSA     CLOUDY    42  39  87 N6        30.14R                  
TUCUMCARI      CLOUDY    49  40  71 N8        30.11R                  
CANNON AFB     CLOUDY    46  40  80 N14       30.12R                  
CLOVIS AIRPORT MOCLDY    45  41  86 N15       30.12R                  

$$
NMZ028-029-538-181400-
SOUTHEAST PLAINS
  
CITY           SKY/WX    TMP DP  RH WIND       PRES   REMARKS
ROSWELL        FAIR      50  41  71 NW9       30.08R                  
ARTESIA        MOCLDY    46  39  76 NW8       30.10R                  
CARLSBAD       MOCLDY    52  40  63 NW12      30.06R                  
HOBBS          CLEAR     50  43  76 N14       30.05R                  


$$